This is the latest recevied weather packets stored in our database for station/object IW4DZV-13. If no packets are shown the sender has not sent any weather packets the latest 10 day(s).
| Time | Temp. | Humidity | Pressure | Rain* | Wind** | Luminosity | Snow |
|---|---|---|---|---|---|---|---|
| 1777681853 | 10.56° C | 57% | 1025.7 hPa | 0 mm | - | 0 W/m² | - |
| 1777680951 | 11.11° C | 56% | 1025.8 hPa | 0 mm | - | 0 W/m² | - |
| 1777680059 | 11.11° C | 55% | 1025.9 hPa | 0 mm | - | 0 W/m² | - |
| 1777679152 | 11.11° C | 55% | 1025.9 hPa | 0 mm | - | 0 W/m² | - |
| 1777678250 | 11.11° C | 55% | 1025.8 hPa | 0 mm | - | 0 W/m² | - |
| 1777677350 | 11.11° C | 53% | 1025.7 hPa | 0 mm | - | 0 W/m² | - |
| 1777676448 | 11.11° C | 52% | 1025.9 hPa | 0 mm | - | 0 W/m² | - |
| 1777675547 | 11.11° C | 53% | 1025.8 hPa | 0 mm | - | 0 W/m² | - |
| 1777674648 | 11.11° C | 52% | 1025.8 hPa | 0 mm | - | 0 W/m² | - |
| 1777673743 | 11.11° C | 51% | 1025.6 hPa | 0 mm | - | 0 W/m² | - |
| 1777672847 | 11.67° C | 49% | 1025.5 hPa | 0 mm | - | 0 W/m² | - |
| 1777671941 | 11.67° C | 48% | 1025.4 hPa | 0 mm | - | 0 W/m² | - |
| 1777671059 | 11.67° C | 49% | 1025.4 hPa | 0 mm | - | 0 W/m² | - |
| 1777670140 | 11.67° C | 50% | 1025.4 hPa | 0 mm | - | 0 W/m² | - |
| 1777669240 | 12.22° C | 50% | 1025.3 hPa | 0 mm | - | 0 W/m² | - |
| 1777668342 | 12.22° C | 48% | 1025.1 hPa | 0 mm | - | 0 W/m² | - |
| 1777667439 | 12.22° C | 49% | 1025 hPa | 0 mm | - | 0 W/m² | - |
| 1777666538 | 12.78° C | 48% | 1024.9 hPa | 0 mm | - | 0 W/m² | - |
| 1777665638 | 13.33° C | 47% | 1025 hPa | 0 mm | - | 0 W/m² | - |
| 1777664742 | 13.33° C | 45% | 1024.8 hPa | 0 mm | - | 0 W/m² | - |
| 1777663838 | 13.89° C | 45% | 1024.7 hPa | 0 mm | - | 0 W/m² | - |
| 1777662937 | 14.44° C | 43% | 1024.6 hPa | 0 mm | - | 0 W/m² | - |
| 1777662037 | 15° C | 41% | 1024.6 hPa | 0 mm | - | 0 W/m² | - |
| 1777661136 | 15° C | 41% | 1024.5 hPa | 0 mm | - | 0 W/m² | - |
| 1777660238 | 16.11° C | 40% | 1024.3 hPa | 0 mm | - | 0 W/m² | - |
* Rain since midnight (hover to see other rain measurements)
** Current wind speed in m/s (hover to see current wind gust speed)